SPACEBEE-97 (48936 NORAD) Tracking and Keplerian Element Data

This shows tracking and keplerian element data for the satellite.

Feedback or suggestion? Click here.




ElementValue
Catalog48936
NameSPACEBEE-97
Epoch Orbit1681
Epoch Day287.90814047
Epoch Year2021
RAAN55.3628
Inclination97.5212
Eccentricity0.0016738
Argument of Perigee228.7793
Mean Anonmoly131.1997
Mean Motion15.14903921
Decay Rate7.88E-05
L11 48936U 21059BK 21287.90814047 .00007880 00000-0 42519-3 0 9997
L22 48936 97.5212 55.3628 0016738 228.7793 131.1997 15.14903921 16812

Live tracking and technical data element details for SPACEBEE-97 (NORAD 48936). SPACEBEE-97 can be tracked NOW for your location showing map with azimuth and elevation plus other details from your city location.

Track the satellite on the map from your city or location and see movement details for azimuth, elevation, latitude, longitude, range, height, and movement on the map or in text.







IsCatalogInMostPopularTable: catalog: 48936, numindb: 19
Update: records affected: 1



GetName: 48936 SPACEBEE-97

Hit Count: updated at: Tue, 19 Oct 2021 09:05:32 GMT